This is the latest recevied weather packets stored in our database for station/object KB2AHZ. If no packets are shown the sender has not sent any weather packets the latest 10 day(s).
| Time | Temp. | Humidity | Pressure | Rain* | Wind** | Luminosity | Snow |
|---|---|---|---|---|---|---|---|
| 1777900523 | 15.56° C | 66% | 1017.3 hPa | 0 mm | - | 275 W/m² | - |
| 1777900220 | 16.11° C | 68% | 1017.3 hPa | 0 mm | - | 428 W/m² | - |
| 1777899916 | 14.44° C | 70% | 1017.1 hPa | 0 mm | - | 503 W/m² | - |
| 1777899614 | 13.89° C | 71% | 1017.2 hPa | 0 mm | - | 463 W/m² | - |
| 1777899311 | 13.33° C | 73% | 1017.2 hPa | 0 mm | - | 425 W/m² | - |
| 1777899009 | 12.78° C | 74% | 1017.4 hPa | 0 mm | - | 389 W/m² | - |
| 1777898705 | 12.22° C | 75% | 1017.4 hPa | 0 mm | - | 343 W/m² | - |
| 1777898403 | 11.67° C | 79% | 1017.1 hPa | 0 mm | - | 192 W/m² | - |
| 1777898101 | 11.11° C | 79% | 1017.3 hPa | 0 mm | - | 269 W/m² | - |
| 1777897796 | 11.11° C | 78% | 1017.2 hPa | 0 mm | - | 176 W/m² | - |
| 1777897493 | 11.11° C | 77% | 1017.5 hPa | 0 mm | - | 221 W/m² | - |
| 1777897189 | 10.56° C | 78% | 1017.5 hPa | 0 mm | - | 276 W/m² | - |
| 1777896885 | 10.56° C | 79% | 1017.5 hPa | 0 mm | - | 198 W/m² | - |
| 1777896583 | 10.56° C | 78% | 1017.4 hPa | 0 mm | - | 161 W/m² | - |
| 1777896279 | 10° C | 80% | 1017.3 hPa | 0 mm | - | 145 W/m² | - |
| 1777895978 | 10° C | 78% | 1017.4 hPa | 0 mm | - | 135 W/m² | - |
| 1777895675 | 10.56° C | 76% | 1017.5 hPa | 0 mm | - | 229 W/m² | - |
| 1777895372 | 10° C | 81% | 1017.5 hPa | 0 mm | - | 208 W/m² | - |
| 1777895070 | 8.89° C | 84% | 1017.7 hPa | 0 mm | - | 153 W/m² | - |
| 1777894766 | 8.33° C | 85% | 1017.6 hPa | 0 mm | - | 76 W/m² | - |
| 1777894463 | 7.78° C | 84% | 1017.5 hPa | 0 mm | - | 69 W/m² | - |
| 1777894161 | 7.78° C | 84% | 1017.6 hPa | 0 mm | - | 117 W/m² | - |
| 1777893858 | 7.78° C | 84% | 1017.6 hPa | 0 mm | - | 81 W/m² | - |
| 1777893554 | 7.78° C | 85% | 1017.6 hPa | 0 mm | - | 66 W/m² | - |
| 1777893251 | 7.22° C | 85% | 1017.5 hPa | 0 mm | - | 58 W/m² | - |
* Rain latest hour (hover to see other rain measurements)
** Current wind speed in m/s (hover to see current wind gust speed)